Location: Unspecified
(0.0000°N, 0.0000°E)
Time: 15:02:07
(UTC+00:00)

CUTE-I - Pass Details

Date: 17 December 2019
Orbit: 811 x 824 km, 98.7° (Epoch: 14 August)

Event Time Altitude Azimuth Distance (km) Brightness Sun altitude
Rises 04:43:56 0° 54° (NE) 3,326 ? -16.5°
Reaches altitude 10° 04:48:27 10° 90° (E) 2,396 ? -15.4°
Maximum altitude 04:49:39 11° 103° (ESE) 2,343 ? -15.2°
Drops below altitude 10° 04:50:52 10° 117° (ESE) 2,397 ? -14.9°
Sets 04:55:22 0° 153° (SSE) 3,331 ? -13.9°
